User: anonymous   Login
Location: Benque
(43.2594°N, 0.9178°E)
Time: 12:55:35
(UTC+00:00)
Language:

USA 238 - Orbit

View from above orbital plane
View from above orbital plane
View from above satellite
View from above satellite

Ground track
Ground track

The orbit data is extracted from the following two-line orbital elements,

1 38758U 12048A   20091.18144414 0.00000000  00000-0  00000-0 0    08
2 38758  63.4283 230.6741 0117207 357.8080   2.1920 13.40802814    06
Epoch (UTC): 31 March 2020 04:21:16
Eccentricity: 0.0117207
inclination: 63.4283°
perigee height: 1018 km
apogee height: 1194 km
right ascension of ascending node: 230.6741°
argument of perigee: 357.8080°
revolutions per day: 13.40802814
mean anomaly at epoch: 2.1920°
orbit number at epoch: 0

The dashed part of the orbit path shows where the satellite is in the earth's shadow,  

DLR